This is the latest recevied weather packets stored in our database for station/object SP3SWJ-13. If no packets are shown the sender has not sent any weather packets the latest 10 day(s).
| Time | Temp. | Humidity | Pressure | Rain* | Wind** | Luminosity | Snow |
|---|---|---|---|---|---|---|---|
| 1778064590 | 17.22° C | 64% | 995.6 hPa | - | - | 211 W/m² | - |
| 1778064289 | 17.22° C | 64% | 995.8 hPa | - | - | 90 W/m² | - |
| 1778063988 | 16.67° C | 65% | 995.7 hPa | - | - | 74 W/m² | - |
| 1778063687 | 17.78° C | 63% | 995.8 hPa | - | - | 109 W/m² | - |
| 1778063386 | 17.78° C | 61% | 995.7 hPa | - | - | 231 W/m² | - |
| 1778063085 | 17.78° C | 62% | 995.8 hPa | - | - | 790 W/m² | - |
| 1778062783 | 17.22° C | 62% | 995.7 hPa | - | - | 724 W/m² | - |
| 1778062482 | 16.67° C | 65% | 995.7 hPa | - | - | 683 W/m² | - |
| 1778062181 | 16.11° C | 67% | 995.8 hPa | - | - | 738 W/m² | - |
| 1778061880 | 16.11° C | 67% | 995.9 hPa | - | - | 85 W/m² | - |
| 1778061579 | 16.67° C | 65% | 996 hPa | - | - | 88 W/m² | - |
| 1778061278 | 16.67° C | 64% | 995.8 hPa | - | - | 398 W/m² | - |
| 1778060977 | 16.67° C | 63% | 995.8 hPa | - | - | 224 W/m² | - |
| 1778060676 | 16.11° C | 64% | 995.7 hPa | - | - | 696 W/m² | - |
| 1778060375 | 15.56° C | 67% | 995.8 hPa | - | - | 600 W/m² | - |
| 1778060074 | 15° C | 69% | 995.9 hPa | - | - | 215 W/m² | - |
| 1778059773 | 15° C | 69% | 996 hPa | - | - | 123 W/m² | - |
| 1778059472 | 15.56° C | 68% | 995.9 hPa | - | - | 178 W/m² | - |
| 1778059171 | 15.56° C | 67% | 995.8 hPa | - | - | 179 W/m² | - |
| 1778058870 | 15.56° C | 66% | 995.8 hPa | - | - | 257 W/m² | - |
| 1778058569 | 15.56° C | 67% | 995.8 hPa | - | - | 289 W/m² | - |
| 1778058268 | 15.56° C | 66% | 995.8 hPa | - | - | 177 W/m² | - |
| 1778057967 | 15.56° C | 65% | 995.7 hPa | - | - | 274 W/m² | - |
| 1778057666 | 15.56° C | 66% | 995.6 hPa | - | - | 276 W/m² | - |
| 1778057365 | 15° C | 67% | 995.6 hPa | - | - | 294 W/m² | - |
* Rain since midnight (hover to see other rain measurements)
** Current wind speed in m/s (hover to see current wind gust speed)